Вернуться в каталог

EXPLORER 29

GEOS 1

АктивенНаукаUNKNOWN
NORAD 1726·PAYLOAD·🇺🇸 United States

Запущен Nov 6, 1965 с Cape Canaveral Space Force Station

Loading…

Ближайшие Пролёты (ближайшие 24 часа)

TLE

СвежийSource: Space-Track

Эпоха: Sep 14, 2026, 13:47 UTC

1 01726U 65089A   26257.57448604 -.00000084  00000-0 -71042-4 0  9996
2 01726  59.3841 188.1488 0711039 279.6210 260.2438 11.97078668660363

Отслеживайте EXPLORER 29 в реальном времени с AllMySat

Download on the App Store